Location: Bessat
(45.8735°N, 1.9924°E)
Time: 13:42:13
(UTC+00:00)

Gbstr 26 Del rocket - Pass Details

Date: 11 May 2021
Orbit: 493 x 1263 km, 51.8° (Epoch: 19 June)

Event Time Altitude Azimuth Distance (km) Brightness Sun altitude
Rises 22:09:06 0° 292° (WNW) 4,122 8.0 -22.2°
Reaches altitude 10° 22:12:08 10° 296° (WNW) 3,085 7.3 -22.4°
Maximum altitude 22:19:36 66° 18° (NNE) 1,119 4.4 -22.9°
Enters shadow 22:23:51 22° 96° (E) 1,921 5.3 -23.2°
